User: anonymous   Login
Location: Unspecified
(0.0000°N, 0.0000°E)
Time: 23:31:35
(UTC+02:00)
Language:

Cosmos 1295 Rocket - Orbit

View from above orbital plane
View from above orbital plane
View from above satellite
View from above satellite

Ground track
Ground track

The orbit data is extracted from the following two-line orbital elements,

1 12682U 81077B   17086.49290937 -.00000066 +00000-0 -79526-4 0  9994
2 12682 082.9138 077.2366 0033190 211.2441 148.6745 13.78530683791606
Epoch (UTC): 27 March 2017 11:49:47
Eccentricity: 0.0033190
inclination: 82.9138°
perigee height: 945 km
apogee height: 993 km
right ascension of ascending node: 77.2366°
argument of perigee: 211.2441°
revolutions per day: 13.78530683
mean anomaly at epoch: 148.6745°
orbit number at epoch: 79160

The dashed part of the orbit path shows where the satellite is in the earth's shadow,  

DLR